Voltar ao catálogo

PEGASUS R/B

AtivoLEO
NORAD 24921·ROCKET BODY·🇺🇸 United States

Lançado Aug 29, 1997 de Vandenberg Space Force Base

Loading…

Próximas Passagens (próximas 24 horas)

TLE

AtualizadoSource: Space-Track

Época: Sep 14, 2026, 14:47 UTC

1 24921U 97047B   26257.61646639  .00000050  00000-0  44346-4 0  9998
2 24921  69.9704 210.1749 0018713 140.1542  32.3865 14.26588228511039

Acompanhe PEGASUS R/B em tempo real com AllMySat

Download on the App Store